Weather History for PAJC - March, 2014

Change the Weather History Date:

Monday, March 17, 2014

  Actual Average Record
Temperature  
Mean Temperature 38 °F -  
Max Temperature 42 °F 34 °F 42 °F (2014)
Min Temperature 33 °F 26 °F 12 °F (2012)
Degree Days  
Heating Degree Days 28    
Moisture  
Dew Point 29 °F    
Average Humidity 68    
Maximum Humidity 87    
Minimum Humidity 53    
Precipitation  
Precipitation 0.04 in - - ()
Sea Level Pressure  
Sea Level Pressure 29.52 in    
Wind  
Wind Speed 12 mph (SW)    
Max Wind Speed 28 mph    
Max Gust Speed 37 mph    
Visibility 10 miles    
Events      
Averages and records for this station are not official NWS values.
T = Trace of Precipitation, MM = Missing Value Source: NWS Daily Summary

Daily Weather History Graph

Daily Weather History Graph

Search for Another Location

Airport or City:

Trip Planner

Search our weather history database for the weather conditions in past years. The results will help you decide how hot, cold, wet, or windy it might be!

Date:

Astronomy

Mar. 17, 2014 Rise Set
Actual Time 8:42 AM AKDT 8:41 PM AKDT
Civil Twilight 8:05 AM AKDT 9:19 PM AKDT
Nautical Twilight 7:21 AM AKDT 10:03 PM AKDT
Astronomical Twilight 6:35 AM AKDT 10:50 PM AKDT
Moon 10:31 PM AKDT (3/17) 8:49 AM AKDT (3/17)
Length of Visible Light 13h 13m
Length of Day
11h 58m
Full, 99% of the Moon is Illuminated
Mar 17
Full
Mar 23
Last Quarter
Mar 30
New
Apr 7
First Quarter
Apr 14
Full

Hourly Weather History & Observations

Time (AKDT) Temp. Windchill Dew Point Humidity Pressure Visibility Wind Dir Wind Speed Gust Speed Precip Events Conditions
12:16 AM - - - N/A% 29.39 in 10.0 mi SSW 12.7 mph 27.6 mph N/A   Mostly Cloudy
12:36 AM - - - N/A% 29.39 in 10.0 mi South 13.8 mph 29.9 mph N/A   Mostly Cloudy
12:56 AM - - - N/A% 29.39 in 10.0 mi South 12.7 mph 28.8 mph N/A   Mostly Cloudy
1:16 AM - - - N/A% 29.40 in 10.0 mi SSW 20.7 mph - N/A   Mostly Cloudy
1:36 AM - - - N/A% 29.41 in 10.0 mi South 10.4 mph 28.8 mph N/A   Mostly Cloudy
1:56 AM - - - N/A% 29.41 in 10.0 mi South 21.9 mph 35.7 mph N/A   Mostly Cloudy
2:16 AM 39.2 °F - 30.2 °F 70% 29.44 in 9.0 mi Calm Calm - N/A   Overcast
2:36 AM - - - N/A% 29.43 in 10.0 mi West 3.5 mph 24.2 mph 0.01 in   Overcast
2:56 AM 39.2 °F 34.2 °F 30.2 °F 70% 29.44 in 10.0 mi SSW 6.9 mph 19.6 mph 0.01 in   Overcast
3:16 AM 39.2 °F 33.0 °F 26.6 °F 61% 29.44 in 10.0 mi South 9.2 mph - N/A   Overcast
3:36 AM - - - N/A% 29.44 in 10.0 mi SSE 3.5 mph 20.7 mph N/A   Overcast
3:56 AM - - - N/A% 29.44 in 10.0 mi South 13.8 mph 23.0 mph N/A   Mostly Cloudy
4:16 AM - - - N/A% 29.44 in 10.0 mi SSW 24.2 mph 29.9 mph N/A   Mostly Cloudy
4:36 AM - - - N/A% 29.44 in 10.0 mi South 16.1 mph 33.4 mph N/A   Mostly Cloudy
4:56 AM - - - N/A% 29.45 in 10.0 mi SSW 19.6 mph 25.3 mph N/A   Mostly Cloudy
5:16 AM - - - N/A% 29.46 in 5.0 mi SSW 16.1 mph 23.0 mph N/A   Overcast
5:36 AM - - - N/A% 29.45 in 10.0 mi SSW 18.4 mph 26.5 mph N/A   Mostly Cloudy
5:56 AM - - - N/A% 29.44 in 10.0 mi South 20.7 mph 25.3 mph N/A   Partly Cloudy
6:16 AM - - - N/A% 29.45 in 9.0 mi South 15.0 mph 26.5 mph N/A   Mostly Cloudy
6:36 AM - - - N/A% 29.44 in 10.0 mi SSW 27.6 mph 34.5 mph N/A   Scattered Clouds
6:56 AM - - - N/A% 29.45 in 10.0 mi SSW 20.7 mph 29.9 mph N/A   Scattered Clouds
7:16 AM - - - N/A% 29.45 in 10.0 mi SSW 20.7 mph 31.1 mph N/A   Scattered Clouds
7:36 AM - - - N/A% 29.48 in 6.0 mi SSW 6.9 mph 25.3 mph N/A   Mostly Cloudy
7:56 AM 33.8 °F 24.8 °F 28.4 °F 81% 29.48 in 1.8 mi SSE 12.7 mph 20.7 mph N/A   Overcast
8:16 AM - - - N/A% 29.46 in 10.0 mi SSW 12.7 mph 24.2 mph 0.01 in   Mostly Cloudy
8:36 AM 39.2 °F 29.8 °F 26.6 °F 61% 29.46 in 10.0 mi SSW 18.4 mph 31.1 mph 0.02 in   Mostly Cloudy
8:56 AM - - - N/A% 29.47 in 10.0 mi SSW 9.2 mph 23.0 mph 0.02 in   Scattered Clouds
9:16 AM 39.2 °F 35.0 °F 24.8 °F 56% 29.48 in 10.0 mi SSW 5.8 mph 19.6 mph N/A   Partly Cloudy
9:36 AM 37.4 °F 27.8 °F 23.0 °F 56% 29.48 in 10.0 mi SW 17.3 mph 26.5 mph N/A   Scattered Clouds
9:56 AM 37.4 °F 32.8 °F 28.4 °F 70% 29.49 in 4.0 mi WSW 5.8 mph 21.9 mph N/A   Overcast
10:16 AM 35.6 °F 30.7 °F 28.4 °F 75% 29.49 in 10.0 mi SW 5.8 mph - N/A   Scattered Clouds
10:36 AM 37.4 °F 30.3 °F 26.6 °F 65% 29.49 in 10.0 mi SSW 10.4 mph 20.7 mph N/A   Partly Cloudy
10:56 AM 39.2 °F 33.0 °F 26.6 °F 61% 29.50 in 10.0 mi South 9.2 mph 17.3 mph N/A   Mostly Cloudy
11:16 AM - - - N/A% 29.50 in 10.0 mi SW 8.1 mph 21.9 mph N/A   Mostly Cloudy
11:36 AM 42.8 °F 39.3 °F 26.6 °F 53% 29.50 in 10.0 mi South 5.8 mph - N/A   Scattered Clouds
11:56 AM - - - N/A% 29.50 in 10.0 mi WSW 13.8 mph - N/A   Overcast
12:16 PM 39.2 °F 35.0 °F 26.6 °F 61% 29.51 in 10.0 mi WSW 5.8 mph - N/A   Mostly Cloudy
12:36 PM - - - N/A% 29.51 in 10.0 mi SW 13.8 mph 21.9 mph N/A   Mostly Cloudy
12:56 PM 41.0 °F 39.0 °F 30.2 °F 65% 29.52 in 10.0 mi SSW 3.5 mph - N/A   Overcast
1:16 PM 39.2 °F 35.0 °F 28.4 °F 65% 29.52 in 10.0 mi North 5.8 mph - N/A   Overcast
1:36 PM 39.2 °F 35.0 °F 28.4 °F 65% 29.52 in 10.0 mi North 5.8 mph - N/A   Overcast
1:56 PM 39.2 °F 35.9 °F 30.2 °F 70% 29.52 in 10.0 mi NE 4.6 mph - N/A   Overcast
2:16 PM 39.2 °F 35.0 °F 30.2 °F 70% 29.52 in 10.0 mi NNE 5.8 mph - N/A   Overcast
2:36 PM 39.2 °F 35.9 °F 28.4 °F 65% 29.52 in 10.0 mi NW 4.6 mph - N/A   Overcast
2:56 PM 39.2 °F 35.9 °F 28.4 °F 65% 29.52 in 10.0 mi NW 4.6 mph - N/A   Overcast
3:16 PM 41.0 °F 35.8 °F 28.4 °F 61% 29.52 in 10.0 mi NNE 8.1 mph - N/A   Mostly Cloudy
3:36 PM 42.8 °F 37.5 °F 30.2 °F 61% 29.52 in 10.0 mi NNE 9.2 mph - N/A   Overcast
3:56 PM 41.0 °F 37.1 °F 30.2 °F 65% 29.52 in 10.0 mi NE 5.8 mph - N/A   Overcast
4:16 PM 39.2 °F 34.2 °F 30.2 °F 70% 29.52 in 10.0 mi South 6.9 mph - N/A   Overcast
4:36 PM 39.2 °F 35.9 °F 30.2 °F 70% 29.52 in 10.0 mi East 4.6 mph - N/A   Overcast
4:56 PM 41.0 °F 37.1 °F 30.2 °F 65% 29.53 in 10.0 mi ENE 5.8 mph - N/A   Overcast
5:16 PM 39.2 °F 34.2 °F 30.2 °F 70% 29.53 in 10.0 mi North 6.9 mph - N/A   Mostly Cloudy
5:36 PM 41.0 °F - 30.2 °F 65% 29.53 in 10.0 mi Calm Calm - N/A   Scattered Clouds
5:56 PM 39.2 °F 37.0 °F 30.2 °F 70% 29.54 in 10.0 mi NE 3.5 mph - N/A   Clear
6:16 PM 39.2 °F - 32.0 °F 75% 29.54 in 10.0 mi Calm Calm - N/A   Clear
6:36 PM - - - N/A% 29.54 in 10.0 mi WSW 11.5 mph - N/A   Scattered Clouds
6:56 PM - - - N/A% 29.55 in 10.0 mi WSW 10.4 mph - N/A   Mostly Cloudy
7:16 PM 42.8 °F 38.6 °F 26.6 °F 53% 29.56 in 10.0 mi West 6.9 mph - N/A   Overcast
7:36 PM 39.2 °F 34.2 °F 28.4 °F 65% 29.58 in 10.0 mi WNW 6.9 mph - N/A   Overcast
7:56 PM 37.4 °F 32.8 °F 30.2 °F 75% 29.59 in 10.0 mi West 5.8 mph - N/A   Mostly Cloudy
8:16 PM 35.6 °F 30.7 °F 30.2 °F 81% 29.60 in 10.0 mi South 5.8 mph - N/A   Mostly Cloudy
8:36 PM 35.6 °F 32.8 °F 30.2 °F 81% 29.61 in 10.0 mi WNW 3.5 mph - N/A   Overcast
8:56 PM 35.6 °F 31.7 °F 30.2 °F 81% 29.62 in 10.0 mi SSE 4.6 mph - N/A   Overcast
9:16 PM 35.6 °F 32.8 °F 32.0 °F 87% 29.63 in 10.0 mi NNW 3.5 mph - N/A   Overcast
9:36 PM 37.4 °F 30.8 °F 33.8 °F 87% 29.65 in 10.0 mi WNW 9.2 mph 18.4 mph N/A   Overcast
9:56 PM 35.6 °F 28.6 °F 30.2 °F 81% 29.66 in 10.0 mi West 9.2 mph 18.4 mph N/A   Overcast
10:16 PM - - - N/A% 29.68 in 10.0 mi West 21.9 mph 26.5 mph N/A   Overcast
10:36 PM - - - N/A% 29.70 in 10.0 mi West 13.8 mph 28.8 mph N/A   Mostly Cloudy
10:56 PM - - - N/A% 29.72 in 10.0 mi WSW 21.9 mph 33.4 mph 0.01 in   Mostly Cloudy
11:16 PM - - - N/A% 29.73 in 10.0 mi West 25.3 mph 34.5 mph N/A   Overcast
11:36 PM - - - N/A% 29.75 in 10.0 mi West 20.7 mph 36.8 mph N/A   Mostly Cloudy
11:56 PM - - - N/A% 29.77 in 7.0 mi WSW 13.8 mph 32.2 mph N/A   Overcast